contact:dominique.lefevre@mio.osupytheas.fr, maurice.libes@osupytheas.fr, didier.mallarino@osupytheas.fr
Project:EMSO http://www.emso-fr.org/EMSO-France
Depth: 2436.0 m
Title:EMSO Ligure Ouest : Data MII capteur AQUADOPP
Date,Latitude,Longitude,X_East,Y_North,Z_Up,Amplitude_X,Amplitude_Y,Amplitude_Z,Batterie,SoundSpeed,Heading,Pitch,Roll,Pressure,TIS,Speed,Direction
, degrees North, degrees East, m.s-1, m.s-1,m.s-1, 1, 1, 1, Volt, m.s-1, degree, degree, degree, dbar, degree_C, m.s-1, degree
2021-04-19T00:04:03,42.805,6.029,-0.051,0.0,-0.005,103.0,102.0,101.0,13.4,1505.2,324.5,-0.7,1.8,2469.601,13.28,0.051,270.0
2021-04-19T00:07:03,42.805,6.029,-0.052,-0.001,-0.004,103.0,104.0,101.0,13.3,1505.2,327.2,-0.8,1.8,2469.559,13.28,0.052,268.9
2021-04-19T00:10:03,42.805,6.029,-0.046,-0.006,-0.012,103.0,103.0,102.0,13.4,1505.2,323.7,-0.8,1.8,2469.578,13.28,0.046,262.6
2021-04-19T00:13:03,42.805,6.029,-0.052,0.03,0.029,103.0,104.0,102.0,13.3,1505.2,327.5,-0.8,1.8,2469.611,13.28,0.06,300.0
2021-04-19T00:16:03,42.805,6.029,-0.04,0.001,-0.001,104.0,103.0,101.0,13.4,1505.2,325.8,-0.8,1.8,2469.57,13.28,0.04,271.4
2021-04-19T00:19:03,42.805,6.029,-0.058,0.026,-0.006,103.0,104.0,101.0,13.4,1505.2,323.5,-0.8,1.8,2469.559,13.28,0.063,294.1
2021-04-19T00:22:03,42.805,6.029,-0.042,0.015,-0.014,103.0,103.0,101.0,13.4,1505.2,328.8,-0.7,1.8,2469.585,13.28,0.044,289.6
2021-04-19T00:25:03,42.805,6.029,-0.063,0.01,0.027,103.0,102.0,102.0,13.4,1505.2,325.3,-0.7,1.8,2469.591,13.28,0.063,279.0
2021-04-19T00:28:03,42.805,6.029,-0.069,0.025,0.024,103.0,103.0,101.0,13.3,1505.2,325.7,-0.8,1.8,2469.57,13.28,0.073,289.9
2021-04-19T00:31:03,42.805,6.029,-0.049,0.027,0.038,105.0,103.0,100.0,13.3,1505.2,325.9,-0.7,1.9,2469.558,13.28,0.055,298.9
2021-04-19T00:34:03,42.805,6.029,-0.04,0.014,-0.013,104.0,104.0,101.0,13.3,1505.2,326.4,-0.8,1.9,2469.534,13.28,0.042,289.3
2021-04-19T00:37:03,42.805,6.029,-0.049,0.023,0.006,106.0,103.0,101.0,13.4,1505.2,328.5,-0.7,1.8,2469.605,13.28,0.054,295.1
2021-04-19T00:40:03,42.805,6.029,-0.038,0.007,0.036,103.0,104.0,101.0,13.3,1505.2,325.4,-0.8,1.8,2469.519,13.28,0.038,280.4
2021-04-19T00:43:03,42.805,6.029,-0.046,0.004,0.015,103.0,103.0,100.0,13.4,1505.2,323.9,-0.7,1.8,2469.564,13.28,0.046,275.0
2021-04-19T00:46:03,42.805,6.029,-0.05,0.025,-0.006,103.0,103.0,102.0,13.4,1505.2,327.2,-0.8,1.8,2469.546,13.28,0.055,296.6
2021-04-19T00:49:03,42.805,6.029,-0.027,0.006,-0.007,104.0,105.0,102.0,13.4,1505.2,328.1,-0.7,1.8,2469.561,13.28,0.027,282.5
2021-04-19T00:52:03,42.805,6.029,-0.03,0.019,0.015,104.0,104.0,102.0,13.4,1505.2,327.6,-0.7,1.8,2469.531,13.28,0.035,302.3
2021-04-19T00:55:03,42.805,6.029,-0.034,0.013,0.002,104.0,104.0,103.0,13.4,1505.2,325.8,-0.8,1.8,2469.519,13.28,0.036,290.9
2021-04-19T00:58:03,42.805,6.029,-0.052,0.019,0.028,104.0,104.0,102.0,13.4,1505.2,327.2,-0.7,1.8,2469.515,13.28,0.055,290.1
2021-04-19T01:04:03,42.805,6.029,-0.05,0.019,0.011,104.0,104.0,101.0,13.3,1505.2,324.2,-0.7,1.8,2469.571,13.28,0.053,290.8
2021-04-19T01:07:03,42.805,6.029,-0.019,0.011,-0.008,105.0,103.0,102.0,13.4,1505.2,327.5,-0.7,1.8,2469.545,13.28,0.021,300.1
2021-04-19T01:10:03,42.805,6.029,-0.084,0.004,-0.03,104.0,103.0,101.0,13.4,1505.2,327.2,-0.7,1.8,2469.574,13.28,0.084,272.7
2021-04-19T01:13:03,42.805,6.029,-0.056,0.025,-0.013,104.0,103.0,101.0,13.4,1505.2,328.4,-0.7,1.8,2469.499,13.28,0.061,294.1
2021-04-19T01:16:03,42.805,6.029,-0.042,0.002,-0.003,103.0,102.0,101.0,13.4,1505.2,325.5,-0.7,1.8,2469.535,13.28,0.042,272.7
2021-04-19T01:19:03,42.805,6.029,-0.057,0.032,0.019,104.0,102.0,102.0,13.4,1505.2,328.7,-0.8,1.8,2469.522,13.28,0.065,299.3
2021-04-19T01:22:03,42.805,6.029,-0.031,0.026,0.003,102.0,104.0,101.0,13.4,1505.2,325.0,-0.7,1.8,2469.546,13.28,0.04,310.0
2021-04-19T01:25:03,42.805,6.029,-0.028,-0.002,-0.012,102.0,104.0,102.0,13.3,1505.2,327.2,-0.7,1.8,2469.549,13.28,0.028,265.9
2021-04-19T01:28:03,42.805,6.029,-0.067,0.02,0.003,103.0,104.0,101.0,13.4,1505.2,323.8,-0.8,1.8,2469.576,13.28,0.069,286.6
2021-04-19T01:31:03,42.805,6.029,-0.036,0.007,0.036,104.0,104.0,100.0,13.3,1505.2,325.8,-0.7,1.8,2469.53,13.28,0.036,281.0
2021-04-19T01:34:03,42.805,6.029,-0.061,0.0,0.019,103.0,103.0,101.0,13.4,1505.2,327.2,-0.7,1.8,2469.577,13.28,0.06,270.0
2021-04-19T01:37:03,42.805,6.029,-0.039,0.035,0.0,104.0,103.0,100.0,13.4,1505.2,327.1,-0.8,1.8,2469.554,13.28,0.052,311.9
2021-04-19T01:40:03,42.805,6.029,-0.051,0.035,0.027,104.0,103.0,101.0,13.3,1505.2,326.3,-0.7,1.8,2469.555,13.28,0.061,304.5
2021-04-19T01:43:03,42.805,6.029,-0.023,0.011,-0.01,104.0,103.0,101.0,13.4,1505.2,329.0,-0.7,1.9,2469.537,13.28,0.025,295.6
2021-04-19T01:46:03,42.805,6.029,-0.059,0.021,0.0,102.0,103.0,101.0,13.4,1505.2,327.1,-0.7,1.8,2469.555,13.28,0.062,289.6
2021-04-19T01:49:03,42.805,6.029,-0.035,0.023,0.016,104.0,102.0,102.0,13.4,1505.2,325.9,-0.8,1.9,2469.534,13.28,0.041,303.3
2021-04-19T01:52:03,42.805,6.029,-0.037,0.025,-0.011,102.0,105.0,102.0,13.4,1505.2,328.6,-0.8,1.8,2469.567,13.28,0.044,304.0
2021-04-19T01:55:03,42.805,6.029,-0.044,0.014,0.018,104.0,103.0,101.0,13.4,1505.2,329.1,-0.8,1.8,2469.536,13.28,0.046,287.6
2021-04-19T01:58:03,42.805,6.029,-0.058,0.034,0.02,104.0,103.0,101.0,13.4,1505.2,329.1,-0.7,1.8,2469.55,13.28,0.067,300.4
2021-04-19T02:04:03,42.805,6.029,-0.043,0.008,0.017,103.0,103.0,102.0,13.4,1505.2,326.8,-0.8,1.8,2469.567,13.28,0.043,280.5
2021-04-19T02:07:03,42.805,6.029,-0.061,0.021,0.043,103.0,104.0,101.0,13.4,1505.2,327.8,-0.8,1.8,2469.599,13.28,0.064,289.0
2021-04-19T02:10:03,42.805,6.029,-0.042,-0.022,-0.031,103.0,104.0,101.0,13.4,1505.2,325.6,-0.8,1.8,2469.573,13.28,0.047,242.4
2021-04-19T02:13:03,42.805,6.029,-0.041,-0.003,-0.02,104.0,104.0,101.0,13.4,1505.2,327.9,-0.8,1.8,2469.579,13.28,0.041,265.8
2021-04-19T02:16:03,42.805,6.029,-0.065,0.008,0.014,103.0,103.0,102.0,13.4,1505.2,324.9,-0.7,1.8,2469.557,13.28,0.065,277.0
2021-04-19T02:19:03,42.805,6.029,-0.027,0.016,0.0,104.0,105.0,100.0,13.4,1505.2,328.3,-0.8,1.8,2469.581,13.28,0.031,300.7
2021-04-19T02:22:03,42.805,6.029,-0.046,0.008,0.0,105.0,104.0,102.0,13.4,1505.2,329.1,-0.8,1.9,2469.536,13.28,0.046,279.9
2021-04-19T02:25:03,42.805,6.029,-0.027,0.0,0.005,104.0,105.0,101.0,13.4,1505.2,326.2,-0.7,1.8,2469.588,13.28,0.026,270.0
2021-04-19T02:28:03,42.805,6.029,-0.03,0.018,-0.007,103.0,102.0,102.0,13.4,1505.2,326.0,-0.7,1.8,2469.573,13.28,0.034,301.0
2021-04-19T02:31:03,42.805,6.029,-0.03,0.025,0.022,103.0,104.0,100.0,13.3,1505.2,324.7,-0.8,1.8,2469.576,13.28,0.039,309.8
2021-04-19T02:34:03,42.805,6.029,-0.028,0.013,0.013,103.0,103.0,102.0,13.4,1505.2,323.9,-0.7,1.8,2469.551,13.28,0.03,294.9
2021-04-19T02:37:03,42.805,6.029,-0.036,0.012,0.045,103.0,102.0,101.0,13.4,1505.2,324.4,-0.8,1.8,2469.596,13.28,0.037,288.4
2021-04-19T02:40:03,42.805,6.029,-0.031,0.013,0.01,103.0,103.0,101.0,13.4,1505.2,327.1,-0.7,1.8,2469.561,13.28,0.033,292.7
2021-04-19T02:43:03,42.805,6.029,-0.045,0.008,-0.028,104.0,102.0,102.0,13.3,1505.2,324.9,-0.7,1.8,2469.618,13.28,0.045,280.1
2021-04-19T02:46:03,42.805,6.029,-0.023,0.011,0.023,104.0,103.0,101.0,13.4,1505.2,324.7,-0.8,1.8,2469.58,13.28,0.025,295.6
2021-04-19T02:49:03,42.805,6.029,-0.032,0.018,-0.036,103.0,102.0,101.0,13.3,1505.2,324.8,-0.8,1.8,2469.576,13.28,0.036,299.4
2021-04-19T02:52:03,42.805,6.029,-0.048,0.011,0.006,103.0,104.0,105.0,13.3,1505.2,328.6,-0.8,1.8,2469.547,13.28,0.049,282.9
2021-04-19T02:55:03,42.805,6.029,-0.035,0.016,0.005,103.0,101.0,102.0,13.3,1505.2,327.2,-0.8,1.8,2469.573,13.28,0.038,294.6
2021-04-19T02:58:03,42.805,6.029,-0.051,0.007,-0.004,101.0,104.0,102.0,13.4,1505.2,327.6,-0.7,1.8,2469.576,13.28,0.051,277.8
2021-04-19T03:04:03,42.805,6.029,-0.036,0.036,0.018,103.0,104.0,101.0,13.4,1505.2,326.3,-0.8,1.8,2469.606,13.28,0.05,315.0
2021-04-19T03:07:03,42.805,6.029,-0.05,0.027,0.007,105.0,102.0,103.0,13.4,1505.2,325.2,-0.8,1.8,2469.63,13.28,0.056,298.4
2021-04-19T03:10:03,42.805,6.029,-0.024,0.012,0.04,103.0,104.0,102.0,13.3,1505.2,327.2,-0.7,1.8,2469.601,13.28,0.026,296.6
2021-04-19T03:13:03,42.805,6.029,-0.017,-0.002,0.019,104.0,103.0,101.0,13.4,1505.2,324.1,-0.8,1.9,2469.587,13.28,0.017,263.3
2021-04-19T03:16:03,42.805,6.029,-0.037,0.022,0.032,103.0,103.0,101.0,13.3,1505.2,324.1,-0.8,1.8,2469.611,13.28,0.043,300.7
2021-04-19T03:19:03,42.805,6.029,-0.034,0.004,0.014,103.0,103.0,101.0,13.4,1505.2,323.9,-0.7,1.8,2469.595,13.28,0.034,276.7
2021-04-19T03:22:03,42.805,6.029,-0.043,0.027,0.012,103.0,103.0,102.0,13.3,1505.2,324.6,-0.8,1.8,2469.564,13.28,0.05,302.1
2021-04-19T03:25:03,42.805,6.029,-0.023,0.01,-0.004,104.0,103.0,101.0,13.4,1505.2,324.5,-0.7,1.8,2469.603,13.28,0.025,293.5
2021-04-19T03:28:03,42.805,6.029,-0.036,-0.013,-0.016,102.0,104.0,102.0,13.4,1505.2,328.9,-0.7,1.8,2469.583,13.28,0.038,250.1
2021-04-19T03:31:03,42.805,6.029,-0.033,0.008,0.018,106.0,102.0,101.0,13.4,1505.2,325.3,-0.7,1.8,2469.605,13.28,0.033,283.6
2021-04-19T03:34:03,42.805,6.029,-0.007,0.007,0.011,103.0,104.0,101.0,13.4,1505.2,323.9,-0.7,1.8,2469.585,13.28,0.009,315.0
2021-04-19T03:37:03,42.805,6.029,-0.017,-0.002,0.018,104.0,103.0,101.0,13.4,1505.2,327.3,-0.8,1.8,2469.59,13.28,0.017,263.3
2021-04-19T03:40:03,42.805,6.029,-0.044,-0.005,-0.011,104.0,103.0,101.0,13.4,1505.2,327.0,-0.8,1.8,2469.62,13.29,0.044,263.5
2021-04-19T03:43:03,42.805,6.029,-0.024,0.017,0.022,103.0,104.0,101.0,13.4,1505.2,327.4,-0.8,1.8,2469.593,13.29,0.029,305.3
2021-04-19T03:46:03,42.805,6.029,-0.014,0.023,0.052,103.0,103.0,102.0,13.4,1505.2,328.7,-0.8,1.8,2469.606,13.28,0.026,328.7
2021-04-19T03:49:03,42.805,6.029,-0.029,0.023,0.019,103.0,102.0,102.0,13.4,1505.2,325.4,-0.7,1.8,2469.583,13.28,0.037,308.4
2021-04-19T03:52:03,42.805,6.029,-0.012,0.005,0.01,102.0,103.0,102.0,13.4,1505.2,326.2,-0.8,1.8,2469.578,13.28,0.013,292.6
2021-04-19T03:55:03,42.805,6.029,-0.018,0.022,0.017,102.0,104.0,100.0,13.3,1505.2,329.1,-0.8,1.8,2469.585,13.28,0.028,320.7
2021-04-19T03:58:03,42.805,6.029,-0.014,0.028,0.025,103.0,104.0,101.0,13.4,1505.2,327.9,-0.8,1.8,2469.604,13.28,0.031,333.4
2021-04-19T04:04:03,42.805,6.029,-0.041,0.013,0.014,103.0,102.0,101.0,13.4,1505.2,325.5,-0.8,1.8,2469.576,13.28,0.043,287.6
2021-04-19T04:07:03,42.805,6.029,-0.022,0.001,0.011,103.0,102.0,102.0,13.4,1505.2,328.5,-0.7,1.8,2469.588,13.28,0.022,272.6
2021-04-19T04:10:03,42.805,6.029,-0.05,0.016,0.0,102.0,103.0,101.0,13.4,1505.2,325.2,-0.8,1.8,2469.611,13.28,0.052,287.7
2021-04-19T04:13:03,42.805,6.029,-0.008,0.012,-0.005,103.0,104.0,101.0,13.4,1505.2,323.4,-0.8,1.8,2469.579,13.28,0.014,326.3
2021-04-19T04:16:03,42.805,6.029,-0.028,0.021,0.011,102.0,103.0,101.0,13.4,1505.2,325.2,-0.7,1.8,2469.62,13.28,0.035,306.9
2021-04-19T04:19:03,42.805,6.029,-0.033,0.017,0.029,103.0,102.0,100.0,13.4,1505.2,326.0,-0.8,1.8,2469.582,13.28,0.037,297.3
2021-04-19T04:22:03,42.805,6.029,-0.038,0.007,0.012,102.0,103.0,101.0,13.4,1505.2,325.5,-0.8,1.8,2469.611,13.28,0.038,280.4
2021-04-19T04:25:03,42.805,6.029,-0.028,-0.013,-0.003,102.0,103.0,101.0,13.4,1505.2,323.8,-0.8,1.9,2469.605,13.28,0.03,245.1
2021-04-19T04:28:03,42.805,6.029,-0.028,-0.006,0.002,104.0,101.0,101.0,13.3,1505.2,323.6,-0.8,1.8,2469.577,13.28,0.028,257.9
2021-04-19T04:31:03,42.805,6.029,-0.027,0.002,-0.024,102.0,105.0,101.0,13.4,1505.2,327.5,-0.7,1.8,2469.624,13.28,0.027,274.2
2021-04-19T04:34:03,42.805,6.029,-0.019,-0.009,0.023,103.0,103.0,101.0,13.4,1505.2,328.9,-0.7,1.9,2469.579,13.28,0.021,244.7
2021-04-19T04:37:03,42.805,6.029,-0.014,0.013,0.005,101.0,102.0,102.0,13.3,1505.2,328.5,-0.8,1.8,2469.572,13.28,0.019,312.9
2021-04-19T04:40:03,42.805,6.029,-0.051,-0.008,0.0,101.0,102.0,101.0,13.4,1505.2,324.9,-0.8,1.9,2469.611,13.29,0.051,261.1
2021-04-19T04:43:03,42.805,6.029,-0.046,0.011,0.012,102.0,103.0,101.0,13.4,1505.2,323.5,-0.7,1.8,2469.543,13.29,0.047,283.4
2021-04-19T04:46:03,42.805,6.029,-0.016,0.0,0.018,102.0,102.0,101.0,13.4,1505.2,325.1,-0.8,1.8,2469.54,13.28,0.016,270.0
2021-04-19T04:49:03,42.805,6.029,-0.017,0.025,0.004,102.0,102.0,101.0,13.4,1505.2,327.1,-0.7,1.8,2469.555,13.28,0.03,325.8
2021-04-19T04:52:03,42.805,6.029,-0.008,-0.01,0.006,101.0,103.0,101.0,13.3,1505.2,325.6,-0.8,1.9,2469.599,13.28,0.012,218.7
2021-04-19T04:55:03,42.805,6.029,-0.04,0.012,-0.004,102.0,102.0,101.0,13.4,1505.2,327.1,-0.8,1.8,2469.559,13.28,0.041,286.7
2021-04-19T04:58:03,42.805,6.029,-0.013,0.003,0.018,103.0,103.0,100.0,13.4,1505.2,327.2,-0.8,1.8,2469.609,13.28,0.013,283.0
2021-04-19T05:04:03,42.805,6.029,-0.03,-0.009,-0.013,102.0,103.0,102.0,13.4,1505.2,325.4,-0.7,1.8,2469.594,13.28,0.031,253.3
2021-04-19T05:07:03,42.805,6.029,-0.029,0.005,0.01,102.0,104.0,101.0,13.3,1505.2,325.1,-0.8,1.8,2469.597,13.28,0.029,279.8
2021-04-19T05:10:03,42.805,6.029,-0.025,0.006,-0.005,103.0,103.0,102.0,13.4,1505.2,328.4,-0.8,1.8,2469.594,13.28,0.025,283.5
2021-04-19T05:13:03,42.805,6.029,-0.034,0.014,-0.002,102.0,103.0,101.0,13.4,1505.2,327.8,-0.8,1.9,2469.55,13.28,0.036,292.4
2021-04-19T05:16:03,42.805,6.029,-0.037,-0.001,-0.01,101.0,102.0,102.0,13.4,1505.2,328.9,-0.8,1.8,2469.559,13.29,0.037,268.5
2021-04-19T05:19:03,42.805,6.029,-0.025,0.003,0.002,101.0,105.0,102.0,13.4,1505.2,326.8,-0.7,1.8,2469.559,13.29,0.025,276.8
2021-04-19T05:22:03,42.805,6.029,-0.009,0.003,0.001,102.0,103.0,101.0,13.4,1505.2,326.8,-0.7,1.8,2469.596,13.29,0.009,288.4
2021-04-19T05:25:03,42.805,6.029,-0.02,-0.01,-0.013,103.0,104.0,101.0,13.4,1505.2,325.0,-0.7,1.8,2469.579,13.29,0.022,243.4
2021-04-19T05:28:03,42.805,6.029,-0.019,0.003,0.005,103.0,103.0,101.0,13.3,1505.2,326.3,-0.7,1.8,2469.587,13.29,0.019,279.0
2021-04-19T05:31:03,42.805,6.029,-0.007,0.0,-0.001,103.0,104.0,101.0,13.4,1505.2,326.2,-0.8,1.9,2469.575,13.29,0.007,270.0
2021-04-19T05:34:03,42.805,6.029,-0.028,0.002,0.033,103.0,103.0,101.0,13.4,1505.2,324.2,-0.8,1.8,2469.594,13.29,0.028,274.1
2021-04-19T05:37:03,42.805,6.029,-0.037,0.003,-0.021,103.0,104.0,101.0,13.4,1505.2,324.1,-0.7,1.8,2469.581,13.29,0.037,274.6
2021-04-19T05:40:03,42.805,6.029,-0.006,0.001,0.014,103.0,103.0,101.0,13.4,1505.2,324.8,-0.8,1.8,2469.568,13.29,0.006,279.5
2021-04-19T05:43:03,42.805,6.029,-0.021,-0.009,0.026,103.0,102.0,102.0,13.4,1505.2,326.4,-0.8,1.8,2469.555,13.29,0.022,246.8
2021-04-19T05:46:03,42.805,6.029,-0.007,0.013,0.035,103.0,103.0,101.0,13.3,1505.2,326.9,-0.8,1.8,2469.556,13.29,0.014,331.7
2021-04-19T05:49:03,42.805,6.029,-0.022,0.016,0.024,103.0,102.0,102.0,13.4,1505.2,324.4,-0.7,1.8,2469.549,13.29,0.027,306.0
2021-04-19T05:52:03,42.805,6.029,-0.026,-0.008,-0.02,105.0,103.0,100.0,13.4,1505.2,327.9,-0.7,1.8,2469.556,13.29,0.027,252.9
2021-04-19T05:55:03,42.805,6.029,-0.018,-0.011,-0.018,104.0,103.0,102.0,13.4,1505.2,324.9,-0.7,1.8,2469.545,13.29,0.021,238.6
2021-04-19T05:58:03,42.805,6.029,-0.032,0.004,-0.005,102.0,102.0,101.0,13.4,1505.2,328.4,-0.8,1.9,2469.564,13.29,0.032,277.1
2021-04-19T06:04:03,42.805,6.029,-0.027,0.002,-0.002,104.0,104.0,101.0,13.4,1505.2,325.1,-0.8,1.9,2469.586,13.28,0.027,274.2
2021-04-19T06:07:03,42.805,6.029,-0.018,0.02,0.012,103.0,102.0,100.0,13.3,1505.2,327.6,-0.8,1.8,2469.561,13.28,0.026,318.0
2021-04-19T06:10:03,42.805,6.029,-0.005,-0.005,-0.005,103.0,103.0,102.0,13.4,1505.2,326.5,-0.7,1.8,2469.579,13.29,0.007,225.0
2021-04-19T06:13:03,42.805,6.029,-0.005,0.004,-0.021,103.0,104.0,101.0,13.4,1505.2,323.5,-0.8,1.9,2469.543,13.29,0.006,308.7
2021-04-19T06:16:03,42.805,6.029,-0.023,-0.002,0.039,103.0,102.0,100.0,13.4,1505.2,328.0,-0.8,1.8,2469.546,13.29,0.023,265.0
2021-04-19T06:19:03,42.805,6.029,-0.026,0.013,0.017,104.0,103.0,101.0,13.4,1505.2,328.2,-0.8,1.8,2469.525,13.29,0.029,296.6
2021-04-19T06:22:03,42.805,6.029,-0.011,0.004,0.0,102.0,102.0,101.0,13.4,1505.2,328.8,-0.7,1.8,2469.528,13.29,0.011,290.0
2021-04-19T06:25:03,42.805,6.029,-0.044,0.005,-0.021,102.0,102.0,102.0,13.4,1505.2,326.2,-0.7,1.8,2469.521,13.29,0.044,276.5
2021-04-19T06:28:03,42.805,6.029,-0.04,0.006,-0.011,103.0,103.0,100.0,13.3,1505.2,324.6,-0.7,1.8,2469.515,13.29,0.04,278.5
2021-04-19T06:31:03,42.805,6.029,-0.024,-0.001,0.004,104.0,102.0,102.0,13.4,1505.2,326.8,-0.7,1.8,2469.533,13.29,0.024,267.6
2021-04-19T06:34:03,42.805,6.029,-0.031,0.01,0.005,103.0,104.0,100.0,13.4,1505.2,325.1,-0.7,1.8,2469.54,13.29,0.032,287.9
2021-04-19T06:37:03,42.805,6.029,-0.01,-0.007,-0.001,103.0,104.0,100.0,13.3,1505.2,328.0,-0.8,1.8,2469.548,13.29,0.012,235.0
2021-04-19T06:40:03,42.805,6.029,-0.017,0.0,-0.003,101.0,104.0,103.0,13.4,1505.2,327.6,-0.7,1.8,2469.552,13.29,0.017,270.0
2021-04-19T06:43:03,42.805,6.029,-0.011,-0.011,-0.025,104.0,102.0,102.0,13.4,1505.2,327.9,-0.7,1.8,2469.559,13.29,0.015,225.0
2021-04-19T06:46:03,42.805,6.029,-0.026,0.004,0.002,105.0,102.0,101.0,13.4,1505.2,328.9,-0.7,1.8,2469.56,13.28,0.026,278.7
2021-04-19T06:49:03,42.805,6.029,-0.025,-0.001,-0.008,104.0,104.0,103.0,13.4,1505.2,325.5,-0.8,1.8,2469.514,13.28,0.025,267.7
2021-04-19T06:52:03,42.805,6.029,-0.023,-0.011,0.012,103.0,103.0,102.0,13.3,1505.2,327.9,-0.7,1.8,2469.543,13.29,0.025,244.4
2021-04-19T06:55:03,42.805,6.029,-0.036,-0.013,-0.032,103.0,104.0,101.0,13.4,1505.2,328.9,-0.7,1.8,2469.536,13.28,0.038,250.1
2021-04-19T06:58:03,42.805,6.029,-0.033,-0.003,0.005,104.0,103.0,102.0,13.3,1505.2,327.8,-0.8,1.8,2469.566,13.28,0.033,264.8
2021-04-19T07:04:03,42.805,6.029,-0.027,0.0,-0.028,104.0,102.0,101.0,13.4,1505.2,325.3,-0.7,1.8,2469.596,13.28,0.026,270.0
2021-04-19T07:07:03,42.805,6.029,-0.04,0.0,-0.001,103.0,103.0,100.0,13.4,1505.2,326.8,-0.8,1.8,2469.574,13.28,0.04,270.0
2021-04-19T07:10:03,42.805,6.029,-0.021,0.0,0.002,103.0,102.0,102.0,13.3,1505.2,325.9,-0.8,1.8,2469.538,13.28,0.021,270.0
2021-04-19T07:13:03,42.805,6.029,-0.029,0.003,-0.002,102.0,104.0,101.0,13.3,1505.2,325.6,-0.8,1.8,2469.548,13.28,0.029,275.9
2021-04-19T07:16:03,42.805,6.029,-0.029,-0.008,-0.013,102.0,102.0,102.0,13.4,1505.2,325.7,-0.7,1.8,2469.543,13.28,0.03,254.6
2021-04-19T07:19:03,42.805,6.029,-0.024,-0.009,-0.021,104.0,103.0,101.0,13.4,1505.2,325.7,-0.7,1.8,2469.557,13.28,0.025,249.4
2021-04-19T07:22:03,42.805,6.029,-0.02,-0.014,-0.014,102.0,102.0,102.0,13.4,1505.2,327.2,-0.7,1.8,2469.568,13.28,0.024,235.0
2021-04-19T07:25:03,42.805,6.029,-0.039,-0.001,-0.003,103.0,104.0,101.0,13.4,1505.2,325.5,-0.8,1.8,2469.556,13.28,0.039,268.5
2021-04-19T07:28:03,42.805,6.029,-0.006,0.016,0.004,104.0,102.0,101.0,13.4,1505.2,326.8,-0.7,1.8,2469.559,13.28,0.017,339.4
2021-04-19T07:31:03,42.805,6.029,-0.028,-0.003,0.0,104.0,103.0,103.0,13.4,1505.2,328.5,-0.8,1.8,2469.518,13.28,0.028,263.9
2021-04-19T07:34:03,42.805,6.029,-0.024,0.014,0.0,103.0,102.0,102.0,13.4,1505.2,325.6,-0.8,1.8,2469.524,13.28,0.027,300.3
2021-04-19T07:37:03,42.805,6.029,-0.018,0.014,0.033,103.0,102.0,102.0,13.3,1505.2,326.0,-0.7,1.8,2469.587,13.28,0.022,307.9
2021-04-19T07:40:03,42.805,6.029,-0.012,0.016,-0.019,102.0,104.0,102.0,13.3,1505.2,324.9,-0.8,1.8,2469.535,13.28,0.02,323.1
2021-04-19T07:43:03,42.805,6.029,-0.028,0.009,-0.023,103.0,103.0,100.0,13.4,1505.2,327.0,-0.8,1.9,2469.6,13.28,0.029,287.8
2021-04-19T07:46:03,42.805,6.029,-0.005,-0.003,0.012,103.0,104.0,102.0,13.4,1505.2,324.6,-0.8,1.8,2469.576,13.28,0.005,239.0
2021-04-19T07:49:03,42.805,6.029,-0.014,-0.028,-0.063,104.0,104.0,101.0,13.3,1505.2,326.3,-0.8,1.8,2469.549,13.29,0.031,206.6
2021-04-19T07:52:03,42.805,6.029,-0.027,0.0,0.007,104.0,104.0,101.0,13.3,1505.2,328.1,-0.7,1.8,2469.538,13.29,0.026,270.0
2021-04-19T07:55:03,42.805,6.029,-0.009,-0.004,-0.007,104.0,104.0,103.0,13.4,1505.2,325.5,-0.8,1.8,2469.545,13.28,0.009,246.0
2021-04-19T07:58:03,42.805,6.029,-0.008,-0.011,-0.005,105.0,103.0,101.0,13.4,1505.2,328.4,-0.8,1.8,2469.565,13.28,0.013,216.0
2021-04-19T08:04:03,42.805,6.029,-0.016,-0.01,-0.024,103.0,103.0,101.0,13.4,1505.2,326.1,-0.7,1.8,2469.591,13.28,0.018,238.0
2021-04-19T08:07:03,42.805,6.029,-0.044,0.003,-0.005,103.0,104.0,101.0,13.4,1505.2,326.4,-0.7,1.9,2469.577,13.28,0.044,273.9
2021-04-19T08:10:03,42.805,6.029,-0.019,-0.009,-0.02,103.0,101.0,101.0,13.3,1505.2,327.0,-0.8,1.8,2469.569,13.28,0.021,244.7
2021-04-19T08:13:03,42.805,6.029,-0.012,-0.004,0.003,104.0,101.0,101.0,13.3,1505.2,327.5,-0.8,1.8,2469.526,13.28,0.012,251.6
2021-04-19T08:16:03,42.805,6.029,-0.018,0.014,0.023,102.0,102.0,101.0,13.3,1505.2,326.5,-0.7,1.8,2469.567,13.28,0.022,307.9
2021-04-19T08:19:03,42.805,6.029,-0.021,-0.016,0.011,102.0,103.0,101.0,13.3,1505.2,327.5,-0.8,1.8,2469.573,13.28,0.026,232.7
2021-04-19T08:22:03,42.805,6.029,-0.02,0.025,-0.002,103.0,103.0,100.0,13.3,1505.2,326.6,-0.7,1.8,2469.606,13.28,0.032,321.3
2021-04-19T08:25:03,42.805,6.029,-0.025,0.004,0.035,103.0,101.0,101.0,13.4,1505.2,325.5,-0.7,1.8,2469.589,13.28,0.025,279.1
2021-04-19T08:28:03,42.805,6.029,-0.018,0.01,-0.008,102.0,103.0,101.0,13.4,1505.2,325.9,-0.7,1.8,2469.593,13.29,0.02,299.1
2021-04-19T08:31:03,42.805,6.029,-0.027,0.003,-0.007,102.0,102.0,100.0,13.3,1505.2,325.6,-0.8,1.8,2469.6,13.29,0.027,276.3
2021-04-19T08:34:03,42.805,6.029,-0.037,0.0,-0.037,102.0,102.0,100.0,13.4,1505.2,326.3,-0.8,1.8,2469.62,13.29,0.037,270.0
2021-04-19T08:37:03,42.805,6.029,-0.016,-0.012,0.0,103.0,103.0,100.0,13.3,1505.2,326.9,-0.7,1.8,2469.57,13.29,0.02,233.1
2021-04-19T08:40:03,42.805,6.029,-0.032,0.0,0.003,103.0,102.0,101.0,13.3,1505.2,324.7,-0.8,1.8,2469.589,13.29,0.032,270.0
2021-04-19T08:43:03,42.805,6.029,-0.034,-0.006,-0.012,103.0,102.0,100.0,13.3,1505.2,324.1,-0.8,1.8,2469.592,13.29,0.034,260.0
2021-04-19T08:46:03,42.805,6.029,-0.045,-0.001,-0.008,103.0,103.0,101.0,13.4,1505.2,324.9,-0.7,1.8,2469.595,13.29,0.045,268.7
2021-04-19T08:49:03,42.805,6.029,-0.02,0.0,-0.001,105.0,102.0,100.0,13.4,1505.2,324.4,-0.8,1.8,2469.606,13.29,0.02,270.0
2021-04-19T08:52:03,42.805,6.029,-0.024,0.002,0.03,102.0,102.0,100.0,13.4,1505.2,324.1,-0.7,1.8,2469.596,13.29,0.024,274.8
2021-04-19T08:55:03,42.805,6.029,-0.011,-0.002,-0.006,101.0,102.0,101.0,13.4,1505.2,323.2,-0.8,1.8,2469.598,13.29,0.011,259.7
2021-04-19T08:58:03,42.805,6.029,-0.034,-0.004,-0.002,102.0,103.0,100.0,13.4,1505.2,324.4,-0.8,1.8,2469.61,13.29,0.034,263.3
2021-04-19T09:04:03,42.805,6.029,0.0,-0.01,-0.013,103.0,103.0,101.0,13.3,1505.2,325.0,-0.8,1.8,2469.635,13.28,0.01,180.0
2021-04-19T09:07:03,42.805,6.029,-0.013,-0.004,0.013,104.0,102.0,101.0,13.3,1505.2,327.5,-0.7,1.9,2469.64,13.28,0.013,252.9
2021-04-19T09:10:03,42.805,6.029,-0.013,-0.002,0.011,101.0,103.0,102.0,13.4,1505.2,327.6,-0.7,1.8,2469.625,13.28,0.013,261.3
2021-04-19T09:13:03,42.805,6.029,-0.024,-0.004,-0.005,102.0,101.0,102.0,13.3,1505.2,326.1,-0.7,1.8,2469.66,13.29,0.024,260.5
2021-04-19T09:16:03,42.805,6.029,-0.041,-0.008,0.017,102.0,101.0,100.0,13.4,1505.2,327.9,-0.8,1.8,2469.605,13.29,0.041,259.0
2021-04-19T09:19:03,42.805,6.029,-0.039,-0.009,0.021,103.0,102.0,102.0,13.4,1505.2,327.7,-0.8,1.8,2469.665,13.29,0.04,257.0
2021-04-19T09:22:03,42.805,6.029,-0.037,0.0,-0.013,102.0,101.0,101.0,13.4,1505.2,325.8,-0.7,1.8,2469.65,13.29,0.037,270.0
2021-04-19T09:25:03,42.805,6.029,-0.026,-0.009,0.015,102.0,102.0,101.0,13.4,1505.2,325.7,-0.8,1.8,2469.646,13.29,0.027,250.9
2021-04-19T09:28:03,42.805,6.029,-0.025,-0.002,0.0,104.0,101.0,100.0,13.4,1505.2,324.8,-0.7,1.8,2469.679,13.29,0.025,265.4
2021-04-19T09:31:03,42.805,6.029,-0.023,-0.011,-0.027,101.0,100.0,102.0,13.3,1505.2,325.3,-0.7,1.8,2469.64,13.29,0.025,244.4
2021-04-19T09:34:03,42.805,6.029,-0.029,0.015,0.01,100.0,101.0,101.0,13.3,1505.2,326.0,-0.7,1.8,2469.657,13.29,0.032,297.4
2021-04-19T09:37:03,42.805,6.029,-0.027,0.0,0.006,102.0,101.0,100.0,13.3,1505.2,328.6,-0.7,1.8,2469.683,13.29,0.026,270.0
2021-04-19T09:40:03,42.805,6.029,-0.013,-0.01,-0.058,101.0,101.0,102.0,13.4,1505.2,327.5,-0.8,1.8,2469.663,13.29,0.016,232.4
2021-04-19T09:43:03,42.805,6.029,-0.003,-0.013,-0.03,100.0,102.0,100.0,13.3,1505.2,325.2,-0.7,1.8,2469.647,13.29,0.013,193.0
2021-04-19T09:46:03,42.805,6.029,-0.01,-0.027,0.012,101.0,101.0,101.0,13.4,1505.2,327.1,-0.7,1.8,2469.697,13.29,0.028,200.3
2021-04-19T09:49:03,42.805,6.029,-0.011,-0.002,-0.001,102.0,102.0,100.0,13.3,1505.2,327.1,-0.8,1.8,2469.654,13.29,0.011,259.7
2021-04-19T09:52:03,42.805,6.029,-0.025,-0.006,0.009,101.0,102.0,101.0,13.4,1505.2,327.0,-0.7,1.8,2469.655,13.29,0.025,256.5
2021-04-19T09:55:03,42.805,6.029,-0.019,-0.015,0.025,101.0,100.0,101.0,13.4,1505.2,323.8,-0.7,1.8,2469.666,13.29,0.024,231.7